Regional Weather Roundup
Issued by NWS

Home | Current Version | Previous Version | Graphics & Text | Print | Product List | Glossary On
Versions: 1 2 3 4 5 6 7 8 9 10 11 12 13 14 15 16 17 18 19 20 21 22 23 24 25 26 27 28 29 30 31 32 33 34 35 36 37 38 39 40 41 42 43 44 45 46 47 48 49 50
000
ASUS44 KMEG 261500
RWRTN
TENNESSEE HOURLY STATE WEATHER ROUNDUP
NATIONAL WEATHER SERVICE MEMPHIS TN
900 AM CST WED NOV 26 2014

TNZ002-004-019-021-049-052-054-088>092-261600-
WEST TENNESSEE

CITY           SKY/WX    TMP DP  RH WIND       PRES   REMARKS
MEMPHIS INTL   PTSUNNY   42  27  55 S9        30.13S
NWS MEMPHIS      N/A     39 N/A N/A MISG        N/A
JACKSON        SUNNY     38  29  70 SE5       30.14F WCI  34
DYERSBURG      SUNNY     37  23  56 SE7       30.14S WCI  32
UNION CITY       N/A     34  28  80 SE9       30.11S VSB 1   WCI  26
PARIS          SUNNY     34  28  80 SE6       30.13F WCI  29
LEXINGTON      SUNNY     32  28  86 SE3       30.14S
SAVANNAH       SUNNY     34  30  86 CALM      30.16S
$$

TNZ008-025-027-028-033-062-065-066-261600-
NORTH MIDDLE TENNESSEE

CITY           SKY/WX    TMP DP  RH WIND       PRES   REMARKS
NASHVILLE      PTSUNNY   37  30  75 CALM      30.15S
CLARKSVILLE    SUNNY     32  29  88 SE3       30.15S FOG
COOKEVILLE     SUNNY     37  30  75 N3        30.11S
CROSSVILLE     SUNNY     39  27  62 NW8       30.09R WCI  33
$$

TNZ061-075-076-078-094-096-097-261600-
SOUTH MIDDLE TENNESSEE

CITY           SKY/WX    TMP DP  RH WIND       PRES   REMARKS
TULLAHOMA      SUNNY     36  28  75 CALM      30.14R
WINCHESTER     SUNNY     37  28  70 CALM      30.15R
SHELBYVILLE    SUNNY     36  30  80 SE46      30.16S SQUALL  WCI  20
$$

TNZ017-018-042-046-047-261600-
NORTHEAST TENNESSEE

CITY           SKY/WX    TMP DP  RH WIND       PRES   REMARKS
TRI CITIES     CLOUDY    40  38  93 NE3       30.04S
ELIZABETHTON   LGT RAIN  36  34  93 CALM      30.03S
$$

TNZ012-013-036-069-073-074-261600-
CENTRAL EAST TENNESSEE

CITY           SKY/WX    TMP DP  RH WIND       PRES   REMARKS
KNOXVILLE      MOSUNNY   44  33  65 SW5       30.07R
OAK RIDGE      SUNNY     46  30  53 SW3       30.09R
GATLINBURG     SUNNY     45  28  53 W9        30.06S
$$

TNZ083-085-099-261600-
SOUTHEAST TENNESSEE

CITY           SKY/WX    TMP DP  RH WIND       PRES   REMARKS
CHATTANOOGA    MOSUNNY   45  28  51 W6        30.12R
$$

SKY/WX REPORTED AS FAIR MEANS FEW OR NO CLOUDS BELOW
12 THOUSAND FEET.




USA.gov is the U.S. government's official web portal to all federal, state and local government web resources and services.